Miscellaneous Local Product
Issued by NWS North Platte, NE

Home | Current Version | Previous Version | Text Only | Print | Product List | Glossary On
Versions: 1 2 3 4 5 6 7 8 9 10 11 12 13 14 15 16 17 18 19 20 21 22 23 24 25 26 27 28 29 30 31 32 33 34 35 36 37 38 39 40 41 42 43 44 45 46 47 48 49 50
000
AXUS43 KLBF 311310
MISLBF


WESTERN AND NORTH CENTRAL NEBRASKA HOURLY WEATHER ROUNDUP
NATIONAL WEATHER SERVICE NORTH PLATTE NE
800 AM CDT FRI JUL 31 2015

***STATIONS NOT REPORTING VARIABLES SUCH AS SKY/WEATHER OR
PRESSURE ARE PROVIDED BY THE NEBRASKA DEPARTMENT OF
ROADS...RAWS...AND APRS NETWORKS...AND ARE NOT UNDER
NATIONAL WEATHER SERVICE QUALITY CONTROL***

...OBSERVATIONS IN AND NEAR THE EASTERN PANHANDLE OF NEBRASKA...

CITY           SKY/WX    TMP DP  RH WIND       PRES   REMARKS
PINE RIDGE     SUNNY     58  51  78 CALM      30.24R
CHADRON        SUNNY     58  52  80 CALM      30.24R
ALLIANCE       SUNNY     56  53  90 W3        30.26S
SIDNEY         SUNNY     61  58  90 SW3       30.31R
BIG SPRINGS      N/A     59  58  96 CALM        N/A
$$

...OBSERVATIONS IN NORTH CENTRAL NEBRASKA...

CITY           SKY/WX    TMP DP  RH WIND       PRES   REMARKS
VALENTINE      SUNNY     63  54  72 CALM      30.20R
THEDFORD       SUNNY     64  61  90 CALM      30.24R
AINSWORTH      SUNNY     68  59  72 SW3       30.20S
O`NEILL        SUNNY     69  65  90 CALM      30.18R
ORD            SUNNY     67  64  90 CALM      30.18R
BROKEN BOW     SUNNY     69  64  84 CALM      30.21R
SPRINGVIEW       N/A     61  56  83 CALM        N/A
CHAMBERS         N/A     76  67  73 CALM        N/A
EWING            N/A     69  67  94 CALM        N/A
$$

...OBSERVATIONS IN SOUTHWEST NEBRASKA AND FAR NORTHEAST COLORADO...

CITY           SKY/WX    TMP DP  RH WIND       PRES   REMARKS
WRAY           FAIR      61  58  90 CALM      30.29R
IMPERIAL       SUNNY     63  57  81 CALM      30.26R
OGALLALA       SUNNY     60  60  99 W3        30.26S
NORTH PLATTE   SUNNY     66  62  87 CALM      30.23R
MCCOOK         SUNNY     67  64  90 CALM      30.23R
LEXINGTON      MOSUNNY   71  67  89 CALM      30.20F
PAXTON           N/A     62  60  94 CALM        N/A
BRADY            N/A     65  62  91 CALM        N/A
CALLAWAY         N/A     67  67  99 W6          N/A
$$

...NORTH PLATTE AREA...

CITY           SKY/WX    TMP DP  RH WIND       PRES   REMARKS
AIRPORT        SUNNY     66  62  87 CALM      30.23R
DOWNTOWN         N/A     71  64  79 CALM        N/A
HILLCREST        N/A     70  63  79 CALM        N/A
$$

...SOME WEATHER OBSERVATIONS FROM AROUND THE REGION...

CITY           SKY/WX    TMP DP  RH WIND       PRES   REMARKS
DENVER         MOSUNNY   65  57  75 W7        30.35R
LARAMIE        SUNNY     50  45  83 S3        30.47R
CHEYENNE       SUNNY     59  51  75 W8        30.39R
SCOTTSBLUFF    SUNNY     62  59  90 E3        30.27R
RAPID CITY     SUNNY     65  51  60 CALM      30.22S
PIERRE         SUNNY     62  55  77 E5        30.17R
WINNER         FAIR      66  57  72 NE3       30.18R
SIOUX FALLS    MOSUNNY   65  61  87 N3        30.17R
OMAHA          MOSUNNY   75  64  68 CALM      30.14R
GRAND ISLAND   SUNNY     73  67  81 W6        30.20R
KANSAS CITY    MOSUNNY   70  64  81 SW5       30.18R
WICHITA        MOSUNNY   74  69  85 E5        30.18F
HAYS           MOSUNNY   68  61  77 CALM      30.21S
LIBERAL        CLOUDY    72  66  83 CALM      30.24R
GOODLAND       SUNNY     63  61  93 W3        30.28S FOG
$$



USA.gov is the U.S. government's official web portal to all federal, state and local government web resources and services.